owner,sensor,date,latitude,longitude,vertical_datum,direction_of_sea_water_velocity,sea_water_speed,upward_sea_water_velocity,qcFlag 
TABS,ioos:station:wmo:42045:1,2012-10-01T00:00:00Z,26.2168,-96.4998,2.0,192.110359,7.578667429,-99999.0,'11133222,11111222,99999999' 
TABS,ioos:station:wmo:42045:1,2012-10-01T00:30:00Z,26.2168,-96.4998,2.0,217.3604607,12.60646263,-99999.0,'11111222,11111222,99999999' 
TABS,ioos:station:wmo:42045:1,2012-10-01T01:00:00Z,26.2168,-96.4998,2.0,185.7103693,6.130424129,-99999.0,'11133222,11111222,99999999' 
TABS,ioos:station:wmo:42045:1,2012-10-01T01:30:00Z,26.2168,-96.4998,2.0,172.2022249,11.94040619,-99999.0,'11111222,11111222,99999999' 
TABS,ioos:station:wmo:42045:1,2012-10-01T02:00:00Z,26.2168,-96.4998,2.0,215.0391738,4.946524032,-99999.0,'11133222,11111222,99999999' 
TABS,ioos:station:wmo:42045:1,2012-10-01T02:30:00Z,26.2168,-96.4998,2.0,164.271604,6.160665548,-99999.0,'11133222,11111222,99999999' 
TABS,ioos:station:wmo:42045:1,2012-10-01T03:00:00Z,26.2168,-96.4998,2.0,159.8802034,5.378196724,-99999.0,'11133222,11111222,99999999' 
TABS,ioos:station:wmo:42045:1,2012-10-01T03:30:00Z,26.2168,-96.4998,2.0,204.7748722,7.158910532,-99999.0,'11133222,11111222,99999999' 
TABS,ioos:station:wmo:42045:1,2012-10-01T04:00:00Z,26.2168,-96.4998,2.0,166.4850805,5.862328889,-99999.0,'11133222,11111222,99999999' 
TABS,ioos:station:wmo:42045:1,2012-10-01T04:30:00Z,26.2168,-96.4998,2.0,164.0544309,2.62083956,-99999.0,'11133222,11111222,99999999' 
TABS,ioos:station:wmo:42045:1,2012-10-01T05:00:00Z,26.2168,-96.4998,2.0,107.7157513,3.023375597,-99999.0,'11133222,11111222,99999999' 
TABS,ioos:station:wmo:42045:1,2012-10-01T05:30:00Z,26.2168,-96.4998,2.0,165.2387092,4.984505994,-99999.0,'11133222,11111222,99999999' 
TABS,ioos:station:wmo:42045:1,2012-10-01T06:00:00Z,26.2168,-96.4998,2.0,198.9043212,4.629730014,-99999.0,'11133222,11111222,99999999' 
TABS,ioos:station:wmo:42045:1,2012-10-01T06:30:00Z,26.2168,-96.4998,2.0,198.3531937,4.446166888,-99999.0,'11133222,11111222,99999999' 
TABS,ioos:station:wmo:42045:1,2012-10-01T07:00:00Z,26.2168,-96.4998,2.0,94.85960307,2.478911051,-99999.0,'11133222,11111222,99999999' 
TABS,ioos:station:wmo:42045:1,2012-10-01T07:30:00Z,26.2168,-96.4998,2.0,213.099991,7.544322369,-99999.0,'11133222,11111222,99999999' 
TABS,ioos:station:wmo:42045:1,2012-10-01T08:00:00Z,26.2168,-96.4998,2.0,130.0061625,1.462190138,-99999.0,'11133222,11111222,99999999' 
TABS,ioos:station:wmo:42045:1,2012-10-01T08:30:00Z,26.2168,-96.4998,2.0,158.9142003,3.418917957,-99999.0,'11133222,11111222,99999999' 
TABS,ioos:station:wmo:42045:1,2012-10-01T09:00:00Z,26.2168,-96.4998,2.0,211.8123643,5.672080747,-99999.0,'11133222,11111222,99999999' 
TABS,ioos:station:wmo:42045:1,2012-10-01T09:30:00Z,26.2168,-96.4998,2.0,253.5625486,2.721212965,-99999.0,'11133222,11111222,99999999' 
TABS,ioos:station:wmo:42045:1,2012-10-01T10:00:00Z,26.2168,-96.4998,2.0,171.8120067,5.617259118,-99999.0,'11133222,11111222,99999999' 
TABS,ioos:station:wmo:42045:1,2012-10-01T10:30:00Z,26.2168,-96.4998,2.0,141.4032654,4.247928907,-99999.0,'11133222,11111222,99999999' 
TABS,ioos:station:wmo:42045:1,2012-10-01T11:00:00Z,26.2168,-96.4998,2.0,84.44006574,3.406024075,-99999.0,'11133222,11111222,99999999' 
TABS,ioos:station:wmo:42045:1,2012-10-01T11:30:00Z,26.2168,-96.4998,2.0,115.7518958,4.096889064,-99999.0,'11133222,11111222,99999999' 
TABS,ioos:station:wmo:42045:1,2012-10-01T12:00:00Z,26.2168,-96.4998,2.0,122.9976279,3.672383422,-99999.0,'11133222,11111222,99999999' 
TABS,ioos:station:wmo:42045:1,2012-10-01T12:30:00Z,26.2168,-96.4998,2.0,154.2764388,4.262405424,-99999.0,'11133222,11111222,99999999' 
TABS,ioos:station:wmo:42045:1,2012-10-01T13:00:00Z,26.2168,-96.4998,2.0,279.2114259,1.874166481,-99999.0,'11133222,11111222,99999999' 
TABS,ioos:station:wmo:42045:1,2012-10-01T13:30:00Z,26.2168,-96.4998,2.0,126.4434468,7.794215804,-99999.0,'11133222,11111222,99999999' 
TABS,ioos:station:wmo:42045:1,2012-10-01T14:00:00Z,26.2168,-96.4998,2.0,234.4999034,5.269506618,-99999.0,'11133222,11111222,99999999' 
TABS,ioos:station:wmo:42045:1,2012-10-01T14:30:00Z,26.2168,-96.4998,2.0,236.3966657,1.824965753,-99999.0,'11133222,11111222,99999999' 
TABS,ioos:station:wmo:42045:1,2012-10-01T15:00:00Z,26.2168,-96.4998,2.0,105.731968,0.737631344,-99999.0,'11133222,11111222,99999999' 
TABS,ioos:station:wmo:42045:1,2012-10-01T15:30:00Z,26.2168,-96.4998,2.0,156.1220633,3.433904483,-99999.0,'11133222,11111222,99999999' 
TABS,ioos:station:wmo:42045:1,2012-10-01T16:00:00Z,26.2168,-96.4998,2.0,78.49691991,2.908418814,-99999.0,'11133222,11111222,99999999' 
TABS,ioos:station:wmo:42045:1,2012-10-01T16:30:00Z,26.2168,-96.4998,2.0,185.8693763,1.075639345,-99999.0,'11133222,11111222,99999999' 
TABS,ioos:station:wmo:42045:1,2012-10-01T17:00:00Z,26.2168,-96.4998,2.0,234.2079409,3.932696276,-99999.0,'11133222,11111222,99999999' 
TABS,ioos:station:wmo:42045:1,2012-10-01T17:30:00Z,26.2168,-96.4998,2.0,294.858782,2.402602755,-99999.0,'11133222,11111222,99999999' 
TABS,ioos:station:wmo:42045:1,2012-10-01T18:00:00Z,26.2168,-96.4998,2.0,173.1729432,1.430139853,-99999.0,'11133222,11111222,99999999' 
TABS,ioos:station:wmo:42045:1,2012-10-01T18:30:00Z,26.2168,-96.4998,2.0,340.4636012,1.64468842,-99999.0,'11133222,11111222,99999999' 
TABS,ioos:station:wmo:42045:1,2012-10-01T19:00:00Z,26.2168,-96.4998,2.0,10.05452255,1.43199162,-99999.0,'11133222,11111222,99999999' 
TABS,ioos:station:wmo:42045:1,2012-10-01T19:30:00Z,26.2168,-96.4998,2.0,295.3719233,2.147091055,-99999.0,'11133222,11111222,99999999' 
TABS,ioos:station:wmo:42045:1,2012-10-01T20:00:00Z,26.2168,-96.4998,2.0,299.3943631,3.443268796,-99999.0,'11133222,11111222,99999999' 
TABS,ioos:station:wmo:42045:1,2012-10-01T20:30:00Z,26.2168,-96.4998,2.0,296.56541,1.02859127,-99999.0,'11133222,11111222,99999999' 
TABS,ioos:station:wmo:42045:1,2012-10-01T21:00:00Z,26.2168,-96.4998,2.0,327.757818,5.379535296,-99999.0,'11133222,11111222,99999999' 
TABS,ioos:station:wmo:42045:1,2012-10-01T21:30:00Z,26.2168,-96.4998,2.0,347.4125465,6.332203408,-99999.0,'11133222,11111222,99999999' 
TABS,ioos:station:wmo:42045:1,2012-10-01T22:00:00Z,26.2168,-96.4998,2.0,330.5290293,4.674922459,-99999.0,'11133222,11111222,99999999' 
TABS,ioos:station:wmo:42045:1,2012-10-01T22:30:00Z,26.2168,-96.4998,2.0,4.031159323,5.974780331,-99999.0,'11133222,11111222,99999999' 
TABS,ioos:station:wmo:42045:1,2012-10-01T23:00:00Z,26.2168,-96.4998,2.0,351.3308153,5.108365688,-99999.0,'11133222,11111222,99999999' 
TABS,ioos:station:wmo:42045:1,2012-10-01T23:30:00Z,26.2168,-96.4998,2.0,335.7900846,4.462488095,-99999.0,'11133222,11111222,99999999' 
TABS,ioos:station:wmo:42045:1,2012-10-02T00:00:00Z,26.2168,-96.4998,2.0,4.291296971,7.350605417,-99999.0,'11133222,11111222,99999999' 
TABS,ioos:station:wmo:42045:1,2012-10-02T00:30:00Z,26.2168,-96.4998,2.0,4.197869,7.650522858,-99999.0,'11133222,11111222,99999999' 
TABS,ioos:station:wmo:42045:1,2012-10-02T01:00:00Z,26.2168,-96.4998,2.0,354.0302084,6.153373059,-99999.0,'11133222,11111222,99999999' 
TABS,ioos:station:wmo:42045:1,2012-10-02T01:30:00Z,26.2168,-96.4998,2.0,12.33537652,8.987480181,-99999.0,'11133222,11111222,99999999' 
TABS,ioos:station:wmo:42045:1,2012-10-02T02:00:00Z,26.2168,-96.4998,2.0,14.90950922,10.02758695,-99999.0,'11111222,11111222,99999999' 
TABS,ioos:station:wmo:42045:1,2012-10-02T02:30:00Z,26.2168,-96.4998,2.0,7.323876637,8.942958124,-99999.0,'11133222,11111222,99999999' 
TABS,ioos:station:wmo:42045:1,2012-10-02T03:00:00Z,26.2168,-96.4998,2.0,358.0269808,11.61688857,-99999.0,'11111222,11111222,99999999' 
TABS,ioos:station:wmo:42045:1,2012-10-02T03:30:00Z,26.2168,-96.4998,2.0,4.150036046,12.71333159,-99999.0,'11111222,11111222,99999999' 
TABS,ioos:station:wmo:42045:1,2012-10-02T04:00:00Z,26.2168,-96.4998,2.0,11.83535652,10.4828479,-99999.0,'11111222,11111222,99999999' 
TABS,ioos:station:wmo:42045:1,2012-10-02T04:30:00Z,26.2168,-96.4998,2.0,13.98028194,12.37659889,-99999.0,'11111222,11111222,99999999' 
TABS,ioos:station:wmo:42045:1,2012-10-02T05:00:00Z,26.2168,-96.4998,2.0,12.69466041,13.87926871,-99999.0,'11111222,11111222,99999999' 
TABS,ioos:station:wmo:42045:1,2012-10-02T05:30:00Z,26.2168,-96.4998,2.0,9.192086531,13.58443963,-99999.0,'11111222,11111222,99999999' 
TABS,ioos:station:wmo:42045:1,2012-10-02T06:00:00Z,26.2168,-96.4998,2.0,2.216350369,11.37851045,-99999.0,'11111222,11111222,99999999' 
TABS,ioos:station:wmo:42045:1,2012-10-02T06:30:00Z,26.2168,-96.4998,2.0,2.768073807,11.80377058,-99999.0,'11111222,11111222,99999999' 
TABS,ioos:station:wmo:42045:1,2012-10-02T07:00:00Z,26.2168,-96.4998,2.0,344.0548518,9.17293846,-99999.0,'11133222,11111222,99999999' 
TABS,ioos:station:wmo:42045:1,2012-10-02T07:30:00Z,26.2168,-96.4998,2.0,356.8907086,14.01062811,-99999.0,'11111222,11111222,99999999' 
TABS,ioos:station:wmo:42045:1,2012-10-02T08:00:00Z,26.2168,-96.4998,2.0,2.394814968,11.00961398,-99999.0,'11111222,11111222,99999999' 
TABS,ioos:station:wmo:42045:1,2012-10-02T08:30:00Z,26.2168,-96.4998,2.0,359.599948,10.02024451,-99999.0,'11111222,11144222,99999999' 
TABS,ioos:station:wmo:42045:1,2012-10-02T09:00:00Z,26.2168,-96.4998,2.0,11.71053532,12.90867925,-99999.0,'11111222,11111222,99999999' 
TABS,ioos:station:wmo:42045:1,2012-10-02T09:30:00Z,26.2168,-96.4998,2.0,2.548992344,15.96579469,-99999.0,'11111222,11111222,99999999' 
TABS,ioos:station:wmo:42045:1,2012-10-02T10:00:00Z,26.2168,-96.4998,2.0,347.5281417,9.862748096,-99999.0,'11133222,11111222,99999999' 
TABS,ioos:station:wmo:42045:1,2012-10-02T10:30:00Z,26.2168,-96.4998,2.0,14.05476158,15.15362663,-99999.0,'11111222,11111222,99999999' 
TABS,ioos:station:wmo:42045:1,2012-10-02T11:00:00Z,26.2168,-96.4998,2.0,356.085244,14.35349435,-99999.0,'11111222,11111222,99999999' 
TABS,ioos:station:wmo:42045:1,2012-10-02T11:30:00Z,26.2168,-96.4998,2.0,359.3166017,17.6012528,-99999.0,'11111222,11144222,99999999' 
TABS,ioos:station:wmo:42045:1,2012-10-02T12:00:00Z,26.2168,-96.4998,2.0,359.5493957,13.98043275,-99999.0,'11111222,11144222,99999999' 
TABS,ioos:station:wmo:42045:1,2012-10-02T12:30:00Z,26.2168,-96.4998,2.0,2.041062556,13.47854963,-99999.0,'11111222,11111222,99999999' 
TABS,ioos:station:wmo:42045:1,2012-10-02T13:00:00Z,26.2168,-96.4998,2.0,357.7501522,12.9900154,-99999.0,'11111222,11111222,99999999' 
TABS,ioos:station:wmo:42045:1,2012-10-02T13:30:00Z,26.2168,-96.4998,2.0,357.2459687,15.60802998,-99999.0,'11111222,11111222,99999999' 
TABS,ioos:station:wmo:42045:1,2012-10-02T14:00:00Z,26.2168,-96.4998,2.0,341.9070728,14.84399542,-99999.0,'11111222,11111222,99999999' 
TABS,ioos:station:wmo:42045:1,2012-10-02T14:30:00Z,26.2168,-96.4998,2.0,355.159961,15.52536634,-99999.0,'11111222,11111222,99999999' 
TABS,ioos:station:wmo:42045:1,2012-10-02T15:00:00Z,26.2168,-96.4998,2.0,353.4914858,17.64372126,-99999.0,'11111222,11111222,99999999' 
TABS,ioos:station:wmo:42045:1,2012-10-02T15:30:00Z,26.2168,-96.4998,2.0,346.8431479,16.12324099,-99999.0,'11111222,11111222,99999999' 
TABS,ioos:station:wmo:42045:1,2012-10-02T16:00:00Z,26.2168,-96.4998,2.0,341.5002207,16.70316138,-99999.0,'11111222,11111222,99999999' 
TABS,ioos:station:wmo:42045:1,2012-10-02T16:30:00Z,26.2168,-96.4998,2.0,343.0261599,16.3732709,-99999.0,'11111222,11111222,99999999' 
TABS,ioos:station:wmo:42045:1,2012-10-02T17:00:00Z,26.2168,-96.4998,2.0,336.1177945,16.7217523,-99999.0,'11111222,11111222,99999999' 
TABS,ioos:station:wmo:42045:1,2012-10-02T17:30:00Z,26.2168,-96.4998,2.0,328.0343724,20.00322474,-99999.0,'11111222,11111222,99999999' 
TABS,ioos:station:wmo:42045:1,2012-10-02T18:00:00Z,26.2168,-96.4998,2.0,334.665261,17.08302374,-99999.0,'11111222,11111222,99999999' 
TABS,ioos:station:wmo:42045:1,2012-10-02T18:30:00Z,26.2168,-96.4998,2.0,328.9906623,17.13957409,-99999.0,'11111222,11111222,99999999' 
TABS,ioos:station:wmo:42045:1,2012-10-02T19:00:00Z,26.2168,-96.4998,2.0,347.4405428,16.09515766,-99999.0,'11111222,11111222,99999999' 
TABS,ioos:station:wmo:42045:1,2012-10-02T19:30:00Z,26.2168,-96.4998,2.0,330.683828,20.40304389,-99999.0,'11111222,11111222,99999999' 
TABS,ioos:station:wmo:42045:1,2012-10-02T20:00:00Z,26.2168,-96.4998,2.0,338.4610574,15.82512243,-99999.0,'11111222,11111222,99999999' 
TABS,ioos:station:wmo:42045:1,2012-10-02T20:30:00Z,26.2168,-96.4998,2.0,332.9538604,20.76038776,-99999.0,'11111222,11111222,99999999' 
TABS,ioos:station:wmo:42045:1,2012-10-02T21:00:00Z,26.2168,-96.4998,2.0,356.1200695,17.88098711,-99999.0,'11111222,11111222,99999999' 
TABS,ioos:station:wmo:42045:1,2012-10-02T21:30:00Z,26.2168,-96.4998,2.0,355.5391426,17.61336141,-99999.0,'11111222,11111222,99999999' 
TABS,ioos:station:wmo:42045:1,2012-10-02T22:00:00Z,26.2168,-96.4998,2.0,352.7657227,14.92884791,-99999.0,'11111222,11111222,99999999' 
TABS,ioos:station:wmo:42045:1,2012-10-02T22:30:00Z,26.2168,-96.4998,2.0,341.8298257,17.12391602,-99999.0,'11111222,11111222,99999999' 
TABS,ioos:station:wmo:42045:1,2012-10-02T23:00:00Z,26.2168,-96.4998,2.0,342.9730429,18.40684927,-99999.0,'11111222,11111222,99999999' 
TABS,ioos:station:wmo:42045:1,2012-10-02T23:30:00Z,26.2168,-96.4998,2.0,340.9837931,18.38326685,-99999.0,'11111222,11111222,99999999' 
TABS,ioos:station:wmo:42045:1,2012-10-03T00:00:00Z,26.2168,-96.4998,2.0,331.3467249,18.03916295,-99999.0,'11111222,11111222,99999999' 
TABS,ioos:station:wmo:42045:1,2012-10-03T00:30:00Z,26.2168,-96.4998,2.0,321.1067328,11.10092339,-99999.0,'11111222,11111222,99999999' 
TABS,ioos:station:wmo:42045:1,2012-10-03T01:00:00Z,26.2168,-96.4998,2.0,322.9950286,16.93004725,-99999.0,'11111222,11111222,99999999' 
TABS,ioos:station:wmo:42045:1,2012-10-03T01:30:00Z,26.2168,-96.4998,2.0,318.9713927,19.91043194,-99999.0,'11111222,11111222,99999999' 
TABS,ioos:station:wmo:42045:1,2012-10-03T02:00:00Z,26.2168,-96.4998,2.0,346.2967031,15.87179889,-99999.0,'11111222,11111222,99999999' 
TABS,ioos:station:wmo:42045:1,2012-10-03T02:30:00Z,26.2168,-96.4998,2.0,18.40800039,13.36378689,-99999.0,'11111222,11111222,99999999' 
TABS,ioos:station:wmo:42045:1,2012-10-03T03:00:00Z,26.2168,-96.4998,2.0,23.99955012,14.18641956,-99999.0,'11111222,11111222,99999999' 
TABS,ioos:station:wmo:42045:1,2012-10-03T03:30:00Z,26.2168,-96.4998,2.0,39.4642851,15.68607663,-99999.0,'11111222,11111222,99999999' 
TABS,ioos:station:wmo:42045:1,2012-10-03T04:00:00Z,26.2168,-96.4998,2.0,22.92929035,13.68096853,-99999.0,'11111222,11111222,99999999' 
TABS,ioos:station:wmo:42045:1,2012-10-03T04:30:00Z,26.2168,-96.4998,2.0,31.13211385,14.60316746,-99999.0,'11111222,11111222,99999999' 
TABS,ioos:station:wmo:42045:1,2012-10-03T05:00:00Z,26.2168,-96.4998,2.0,31.85451042,12.46773837,-99999.0,'11111222,11111222,99999999' 
TABS,ioos:station:wmo:42045:1,2012-10-03T05:30:00Z,26.2168,-96.4998,2.0,28.99982629,16.21271106,-99999.0,'11111222,11111222,99999999' 
TABS,ioos:station:wmo:42045:1,2012-10-03T06:00:00Z,26.2168,-96.4998,2.0,30.50627136,12.88338465,-99999.0,'11111222,11111222,99999999' 
TABS,ioos:station:wmo:42045:1,2012-10-03T06:30:00Z,26.2168,-96.4998,2.0,28.64677775,18.96095198,-99999.0,'11111222,11111222,99999999' 
TABS,ioos:station:wmo:42045:1,2012-10-03T07:00:00Z,26.2168,-96.4998,2.0,33.58240865,16.21668893,-99999.0,'11111222,11111222,99999999' 
TABS,ioos:station:wmo:42045:1,2012-10-03T07:30:00Z,26.2168,-96.4998,2.0,31.64064003,20.47321421,-99999.0,'11111222,11111222,99999999' 
TABS,ioos:station:wmo:42045:1,2012-10-03T08:00:00Z,26.2168,-96.4998,2.0,34.45989051,17.54952421,-99999.0,'11111222,11111222,99999999' 
TABS,ioos:station:wmo:42045:1,2012-10-03T08:30:00Z,26.2168,-96.4998,2.0,30.21947462,21.12011837,-99999.0,'11111222,11111222,99999999' 
TABS,ioos:station:wmo:42045:1,2012-10-03T09:00:00Z,26.2168,-96.4998,2.0,36.35732286,16.98668008,-99999.0,'11111222,11111222,99999999' 
TABS,ioos:station:wmo:42045:1,2012-10-03T09:30:00Z,26.2168,-96.4998,2.0,34.33871988,22.05351899,-99999.0,'11111222,11111222,99999999' 
TABS,ioos:station:wmo:42045:1,2012-10-03T10:00:00Z,26.2168,-96.4998,2.0,33.45300231,19.42854086,-99999.0,'11111222,11111222,99999999' 
TABS,ioos:station:wmo:42045:1,2012-10-03T10:30:00Z,26.2168,-96.4998,2.0,25.64425037,20.0332848,-99999.0,'11111222,11111222,99999999' 
TABS,ioos:station:wmo:42045:1,2012-10-03T11:00:00Z,26.2168,-96.4998,2.0,45.09648133,16.81502304,-99999.0,'11111222,11111222,99999999' 
TABS,ioos:station:wmo:42045:1,2012-10-03T11:30:00Z,26.2168,-96.4998,2.0,39.95574909,18.57693462,-99999.0,'11111222,11111222,99999999' 
TABS,ioos:station:wmo:42045:1,2012-10-03T12:00:00Z,26.2168,-96.4998,2.0,31.63224636,12.20295456,-99999.0,'11111222,11111222,99999999' 
TABS,ioos:station:wmo:42045:1,2012-10-03T12:30:00Z,26.2168,-96.4998,2.0,39.1643981,15.78665576,-99999.0,'11111222,11111222,99999999' 
TABS,ioos:station:wmo:42045:1,2012-10-03T13:00:00Z,26.2168,-96.4998,2.0,32.6391203,14.66596741,-99999.0,'11111222,11111222,99999999' 
TABS,ioos:station:wmo:42045:1,2012-10-03T13:30:00Z,26.2168,-96.4998,2.0,38.03186478,12.82263623,-99999.0,'11111222,11111222,99999999' 
TABS,ioos:station:wmo:42045:1,2012-10-03T14:00:00Z,26.2168,-96.4998,2.0,33.05595597,12.77830192,-99999.0,'11111222,11111222,99999999' 
TABS,ioos:station:wmo:42045:1,2012-10-03T14:30:00Z,26.2168,-96.4998,2.0,38.85453067,11.95517043,-99999.0,'11111222,11111222,99999999' 
TABS,ioos:station:wmo:42045:1,2012-10-03T15:00:00Z,26.2168,-96.4998,2.0,23.88464774,7.45873984,-99999.0,'11133222,11111222,99999999' 
TABS,ioos:station:wmo:42045:1,2012-10-03T15:30:00Z,26.2168,-96.4998,2.0,35.95512977,9.895261492,-99999.0,'11133222,11111222,99999999' 
TABS,ioos:station:wmo:42045:1,2012-10-03T16:00:00Z,26.2168,-96.4998,2.0,47.62726881,9.718791077,-99999.0,'11133222,11111222,99999999' 
TABS,ioos:station:wmo:42045:1,2012-10-03T16:30:00Z,26.2168,-96.4998,2.0,20.11275172,6.048867663,-99999.0,'11133222,11111222,99999999' 
TABS,ioos:station:wmo:42045:1,2012-10-03T17:00:00Z,26.2168,-96.4998,2.0,23.27073906,7.315087149,-99999.0,'11133222,11111222,99999999' 
TABS,ioos:station:wmo:42045:1,2012-10-03T17:30:00Z,26.2168,-96.4998,2.0,1.46450419,9.783194775,-99999.0,'11133222,11111222,99999999' 
TABS,ioos:station:wmo:42045:1,2012-10-03T18:00:00Z,26.2168,-96.4998,2.0,14.80300724,13.77725662,-99999.0,'11111222,11111222,99999999' 
TABS,ioos:station:wmo:42045:1,2012-10-03T18:30:00Z,26.2168,-96.4998,2.0,12.24251303,14.10065601,-99999.0,'11111222,11111222,99999999' 
TABS,ioos:station:wmo:42045:1,2012-10-03T19:00:00Z,26.2168,-96.4998,2.0,15.81622158,14.60283877,-99999.0,'11111222,11111222,99999999' 
TABS,ioos:station:wmo:42045:1,2012-10-03T19:30:00Z,26.2168,-96.4998,2.0,24.98522181,18.49036776,-99999.0,'11111222,11111222,99999999' 
TABS,ioos:station:wmo:42045:1,2012-10-03T20:00:00Z,26.2168,-96.4998,2.0,23.60128562,16.26007688,-99999.0,'11111222,11111222,99999999' 
TABS,ioos:station:wmo:42045:1,2012-10-03T20:30:00Z,26.2168,-96.4998,2.0,17.53656844,15.93035153,-99999.0,'11111222,11111222,99999999' 
TABS,ioos:station:wmo:42045:1,2012-10-03T21:00:00Z,26.2168,-96.4998,2.0,24.64692368,16.83360924,-99999.0,'11111222,11111222,99999999' 
TABS,ioos:station:wmo:42045:1,2012-10-03T21:30:00Z,26.2168,-96.4998,2.0,17.89630153,22.19384599,-99999.0,'11111222,11111222,99999999' 
TABS,ioos:station:wmo:42045:1,2012-10-03T22:00:00Z,26.2168,-96.4998,2.0,15.68676992,16.42162294,-99999.0,'11111222,11111222,99999999' 
TABS,ioos:station:wmo:42045:1,2012-10-03T22:30:00Z,26.2168,-96.4998,2.0,10.14601458,20.94756549,-99999.0,'11111222,11111222,99999999' 
TABS,ioos:station:wmo:42045:1,2012-10-03T23:00:00Z,26.2168,-96.4998,2.0,9.928591974,19.60358386,-99999.0,'11111222,11111222,99999999' 
TABS,ioos:station:wmo:42045:1,2012-10-03T23:30:00Z,26.2168,-96.4998,2.0,13.36549496,13.67024506,-99999.0,'11111222,11111222,99999999' 
TABS,ioos:station:wmo:42045:1,2012-10-04T00:00:00Z,26.2168,-96.4998,2.0,10.84598549,17.43137401,-99999.0,'11111222,11111222,99999999' 
TABS,ioos:station:wmo:42045:1,2012-10-04T00:30:00Z,26.2168,-96.4998,2.0,8.749492617,13.87141665,-99999.0,'11111222,11111222,99999999' 
TABS,ioos:station:wmo:42045:1,2012-10-04T01:00:00Z,26.2168,-96.4998,2.0,2.243018997,19.16468106,-99999.0,'11111222,11111222,99999999' 
TABS,ioos:station:wmo:42045:1,2012-10-04T01:30:00Z,26.2168,-96.4998,2.0,352.6019229,17.16288146,-99999.0,'11111222,11111222,99999999' 
TABS,ioos:station:wmo:42045:1,2012-10-04T02:00:00Z,26.2168,-96.4998,2.0,11.9702064,16.68274558,-99999.0,'11111222,11111222,99999999' 
TABS,ioos:station:wmo:42045:1,2012-10-04T02:30:00Z,26.2168,-96.4998,2.0,2.680178132,18.82058448,-99999.0,'11111222,11111222,99999999' 
TABS,ioos:station:wmo:42045:1,2012-10-04T03:00:00Z,26.2168,-96.4998,2.0,8.850607293,17.54894869,-99999.0,'11111222,11111222,99999999' 
TABS,ioos:station:wmo:42045:1,2012-10-04T03:30:00Z,26.2168,-96.4998,2.0,350.4886926,15.31048334,-99999.0,'11111222,11111222,99999999' 
TABS,ioos:station:wmo:42045:1,2012-10-04T04:00:00Z,26.2168,-96.4998,2.0,1.802532869,21.6206961,-99999.0,'11111222,11111222,99999999' 
TABS,ioos:station:wmo:42045:1,2012-10-04T04:30:00Z,26.2168,-96.4998,2.0,351.5552386,22.12994803,-99999.0,'11111222,11111222,99999999' 
TABS,ioos:station:wmo:42045:1,2012-10-04T05:00:00Z,26.2168,-96.4998,2.0,356.77662,17.42757585,-99999.0,'11111222,11111222,99999999' 
TABS,ioos:station:wmo:42045:1,2012-10-04T05:30:00Z,26.2168,-96.4998,2.0,346.8927795,17.50609608,-99999.0,'11111222,11111222,99999999' 
TABS,ioos:station:wmo:42045:1,2012-10-04T06:00:00Z,26.2168,-96.4998,2.0,341.6286382,17.16485363,-99999.0,'11111222,11111222,99999999' 
TABS,ioos:station:wmo:42045:1,2012-10-04T06:30:00Z,26.2168,-96.4998,2.0,351.2540686,17.09883037,-99999.0,'11111222,11111222,99999999' 
TABS,ioos:station:wmo:42045:1,2012-10-04T07:00:00Z,26.2168,-96.4998,2.0,336.7860666,19.28103732,-99999.0,'11111222,11111222,99999999' 
TABS,ioos:station:wmo:42045:1,2012-10-04T07:30:00Z,26.2168,-96.4998,2.0,343.9617212,19.43654547,-99999.0,'11111222,11111222,99999999' 
TABS,ioos:station:wmo:42045:1,2012-10-04T08:00:00Z,26.2168,-96.4998,2.0,337.3352482,25.38000788,-99999.0,'11111222,11111222,99999999' 
TABS,ioos:station:wmo:42045:1,2012-10-04T08:30:00Z,26.2168,-96.4998,2.0,347.4290745,22.00760096,-99999.0,'11111222,11111222,99999999' 
TABS,ioos:station:wmo:42045:1,2012-10-04T09:00:00Z,26.2168,-96.4998,2.0,358.4726886,18.75666548,-99999.0,'11111222,11111222,99999999' 
TABS,ioos:station:wmo:42045:1,2012-10-04T09:30:00Z,26.2168,-96.4998,2.0,358.8495552,23.40471961,-99999.0,'11111222,11111222,99999999' 
TABS,ioos:station:wmo:42045:1,2012-10-04T10:00:00Z,26.2168,-96.4998,2.0,347.4240719,18.3707621,-99999.0,'11111222,11111222,99999999' 
TABS,ioos:station:wmo:42045:1,2012-10-04T10:30:00Z,26.2168,-96.4998,2.0,355.5682702,18.50533437,-99999.0,'11111222,11111222,99999999' 
TABS,ioos:station:wmo:42045:1,2012-10-04T11:00:00Z,26.2168,-96.4998,2.0,350.8913436,19.45534631,-99999.0,'11111222,11111222,99999999' 
TABS,ioos:station:wmo:42045:1,2012-10-04T11:30:00Z,26.2168,-96.4998,2.0,350.9647401,16.10990379,-99999.0,'11111222,11111222,99999999' 
TABS,ioos:station:wmo:42045:1,2012-10-04T12:00:00Z,26.2168,-96.4998,2.0,2.2886636,21.28697724,-99999.0,'11111222,11111222,99999999' 
TABS,ioos:station:wmo:42045:1,2012-10-04T12:30:00Z,26.2168,-96.4998,2.0,4.927786512,20.60615927,-99999.0,'11111222,11111222,99999999' 
TABS,ioos:station:wmo:42045:1,2012-10-04T13:00:00Z,26.2168,-96.4998,2.0,2.087565155,23.88584937,-99999.0,'11111222,11111222,99999999' 
TABS,ioos:station:wmo:42045:1,2012-10-04T13:30:00Z,26.2168,-96.4998,2.0,13.18955505,21.16839625,-99999.0,'11111222,11111222,99999999' 
TABS,ioos:station:wmo:42045:1,2012-10-04T14:00:00Z,26.2168,-96.4998,2.0,15.30027357,27.92992123,-99999.0,'11111222,11111222,99999999' 
TABS,ioos:station:wmo:42045:1,2012-10-04T14:30:00Z,26.2168,-96.4998,2.0,7.147079905,22.74673163,-99999.0,'11111222,11111222,99999999' 
TABS,ioos:station:wmo:42045:1,2012-10-04T15:00:00Z,26.2168,-96.4998,2.0,14.08856137,21.32131563,-99999.0,'11111222,11111222,99999999' 
TABS,ioos:station:wmo:42045:1,2012-10-04T15:30:00Z,26.2168,-96.4998,2.0,19.89513334,22.21588846,-99999.0,'11111222,11111222,99999999' 
TABS,ioos:station:wmo:42045:1,2012-10-04T16:00:00Z,26.2168,-96.4998,2.0,13.86600452,19.57028615,-99999.0,'11111222,11111222,99999999' 